| time (UTC) | temp C | wind direction | speed KPH | gust KPH | rain 1hr cm | rain 24hr cm | rain mn cm | humidity % | barometer mb |
| 20260902194537 | 34 | 196 | 12.9 | 27.4 | 0.00 | 0.00 | 0.00 | 48 | 1010.5 |
| 20260902194037 | 34 | 202 | 12.9 | 24.1 | 0.00 | 0.00 | 0.00 | 49 | 1010.6 |
| 20260902193537 | 33 | 225 | 11.3 | 24.1 | 0.00 | 0.00 | 0.00 | 53 | 1010.6 |
| 20260902193036 | 33 | 236 | 12.9 | 24.1 | 0.00 | 0.00 | 0.00 | 50 | 1010.7 |
| 20260902192537 | 33 | 203 | 12.9 | 22.5 | 0.00 | 0.00 | 0.00 | 49 | 1010.8 |
| 20260902192036 | 33 | 209 | 12.9 | 22.5 | 0.00 | 0.00 | 0.00 | 49 | 1010.7 |
| 20260902191535 | 33 | 211 | 9.7 | 19.3 | 0.00 | 0.00 | 0.00 | 49 | 1010.6 |
| 20260902191035 | 33 | 243 | 8.0 | 19.3 | 0.00 | 0.00 | 0.00 | 54 | 1010.7 |
| 20260902190035 | 33 | 200 | 9.7 | 24.1 | 0.00 | 0.00 | 0.00 | 50 | 1010.8 |
| 20260902185534 | 33 | 178 | 9.7 | 19.3 | 0.00 | 0.00 | 0.00 | 50 | 1010.8 |
| 20260902185036 | 33 | 171 | 9.7 | 19.3 | 0.00 | 0.00 | 0.00 | 53 | 1010.9 |
| 20260902184534 | 33 | 155 | 6.4 | 19.3 | 0.00 | 0.00 | 0.00 | 52 | 1011.0 |
| 20260902184034 | 33 | 175 | 8.0 | 22.5 | 0.00 | 0.00 | 0.00 | 53 | 1011.1 |
| 20260902183534 | 33 | 146 | 9.7 | 22.5 | 0.00 | 0.00 | 0.00 | 54 | 1011.1 |
| 20260902183033 | 32 | 131 | 9.7 | 20.9 | 0.00 | 0.00 | 0.00 | 54 | 1011.2 |
| 20260902182532 | 32 | 196 | 9.7 | 20.9 | 0.00 | 0.00 | 0.00 | 52 | 1011.2 |
| 20260902181532 | 32 | 160 | 11.3 | 17.7 | 0.00 | 0.00 | 0.00 | 51 | 1011.2 |
| 20260902181033 | 32 | 194 | 8.0 | 19.3 | 0.00 | 0.00 | 0.00 | 50 | 1011.3 |
| 20260902180532 | 32 | 144 | 8.0 | 25.7 | 0.00 | 0.00 | 0.00 | 50 | 1011.3 |
| 20260902180032 | 33 | 255 | 12.9 | 25.7 | 0.00 | 0.00 | 0.00 | 48 | 1011.3 |
| 20260902175532 | 33 | 186 | 12.9 | 22.5 | 0.00 | 0.00 | 0.00 | 49 | 1011.4 |
| 20260902175033 | 33 | 211 | 11.3 | 19.3 | 0.00 | 0.00 | 0.00 | 49 | 1011.4 |
| 20260902174531 | 33 | 196 | 11.3 | 17.7 | 0.00 | 0.00 | 0.00 | 51 | 1011.5 |
| 20260902174031 | 32 | 189 | 6.4 | 14.5 | 0.00 | 0.00 | 0.00 | 52 | 1011.5 |
| 20260902173532 | 32 | 149 | 6.4 | 17.7 | 0.00 | 0.00 | 0.00 | 52 | 1011.6 |
| 20260902173032 | 32 | 178 | 9.7 | 17.7 | 0.00 | 0.00 | 0.00 | 52 | 1011.6 |
| 20260902172530 | 31 | 193 | 6.4 | 14.5 | 0.00 | 0.00 | 0.00 | 55 | 1011.6 |
| 20260902172030 | 31 | 198 | 3.2 | 14.5 | 0.00 | 0.00 | 0.00 | 55 | 1011.6 |
| 20260902171529 | 31 | 171 | 6.4 | 12.9 | 0.00 | 0.00 | 0.00 | 55 | 1011.6 |
| 20260902170028 | 30 | 207 | 9.7 | 16.1 | 0.00 | 0.00 | 0.00 | 54 | 1011.7 |
| 20260902165528 | 30 | 151 | 4.8 | 14.5 | 0.00 | 0.00 | 0.00 | 55 | 1011.8 |
| 20260902165029 | 30 | 215 | 3.2 | 8.0 | 0.00 | 0.00 | 0.00 | 59 | 1011.8 |
| 20260902164528 | 30 | 196 | 4.8 | 9.7 | 0.00 | 0.00 | 0.00 | 56 | 1011.8 |
| 20260902164028 | 30 | 146 | 3.2 | 9.7 | 0.00 | 0.00 | 0.00 | 58 | 1011.8 |
| 20260902163528 | 30 | 165 | 3.2 | 8.0 | 0.00 | 0.00 | 0.00 | 57 | 1011.8 |
| 20260902163027 | 30 | 191 | 3.2 | 9.7 | 0.00 | 0.00 | 0.00 | 56 | 1011.7 |
| 20260902162527 | 30 | 205 | 4.8 | 9.7 | 0.00 | 0.00 | 0.00 | 55 | 1011.8 |
| 20260902162027 | 30 | 212 | 4.8 | 11.3 | 0.00 | 0.00 | 0.00 | 56 | 1011.8 |
| 20260902161527 | 30 | 144 | 4.8 | 14.5 | 0.00 | 0.00 | 0.00 | 55 | 1011.8 |
| 20260902161026 | 30 | 196 | 6.4 | 17.7 | 0.00 | 0.00 | 0.00 | 55 | 1011.8 |
| 20260902160525 | 30 | 215 | 6.4 | 17.7 | 0.00 | 0.00 | 0.00 | 54 | 1011.9 |
| 20260902160025 | 30 | 187 | 9.7 | 16.1 | 0.00 | 0.00 | 0.00 | 55 | 1011.8 |
| 20260902155525 | 29 | 186 | 6.4 | 12.9 | 0.00 | 0.00 | 0.00 | 56 | 1011.7 |
| 20260902155027 | 29 | 187 | 6.4 | 14.5 | 0.00 | 0.00 | 0.00 | 56 | 1011.8 |
| 20260902154525 | 30 | 178 | 8.0 | 14.5 | 0.00 | 0.00 | 0.00 | 55 | 1011.8 |
| 20260902154025 | 29 | 223 | 8.0 | 14.5 | 0.00 | 0.00 | 0.00 | 56 | 1011.8 |
| 20260902153525 | 29 | 171 | 4.8 | 12.9 | 0.00 | 0.00 | 0.00 | 58 | 1011.7 |
| 20260902153024 | 29 | 189 | 4.8 | 16.1 | 0.00 | 0.00 | 0.00 | 59 | 1011.9 |
| 20260902152525 | 29 | 232 | 6.4 | 16.1 | 0.00 | 0.00 | 0.00 | 61 | 1011.9 |
| 20260902152024 | 29 | 215 | 6.4 | 12.9 | 0.00 | 0.00 | 0.00 | 60 | 1011.8 |
| 20260902151524 | 28 | 188 | 3.2 | 8.0 | 0.00 | 0.00 | 0.00 | 64 | 1011.7 |
| 20260902151024 | 28 | 124 | 3.2 | 9.7 | 0.00 | 0.00 | 0.00 | 66 | 1011.8 |
| 20260902150524 | 28 | 178 | 3.2 | 9.7 | 0.00 | 0.00 | 0.00 | 65 | 1011.8 |
| 20260902150024 | 27 | 93 | 3.2 | 11.3 | 0.00 | 0.00 | 0.00 | 65 | 1011.7 |
| 20260902145523 | 27 | 209 | 1.6 | 11.3 | 0.00 | 0.00 | 0.00 | 66 | 1011.7 |
| 20260902145024 | 27 | 132 | 3.2 | 11.3 | 0.00 | 0.00 | 0.00 | 66 | 1011.6 |
| 20260902144523 | 27 | 198 | 6.4 | 11.3 | 0.00 | 0.00 | 0.00 | 66 | 1011.7 |
| 20260902144022 | 26 | 234 | 3.2 | 8.0 | 0.00 | 0.00 | 0.00 | 70 | 1011.7 |
| 20260902143523 | 26 | 200 | 3.2 | 8.0 | 0.00 | 0.00 | 0.00 | 70 | 1011.6 |
| 20260902143022 | 26 | 193 | 3.2 | 6.4 | 0.00 | 0.00 | 0.00 | 70 | 1011.8 |
| 20260902142522 | 26 | 162 | 1.6 | 8.0 | 0.00 | 0.00 | 0.00 | 69 | 1011.7 |
| 20260902141516 | 26 | 178 | 3.2 | 9.7 | 0.00 | 0.00 | 0.00 | 68 | 1011.9 |
| 20260902141016 | 26 | 163 | 3.2 | 9.7 | 0.00 | 0.00 | 0.00 | 67 | 1012.0 |
| 20260902140516 | 26 | 132 | 3.2 | 14.5 | 0.00 | 0.00 | 0.00 | 68 | 1011.9 |
| 20260902140015 | 26 | 131 | 3.2 | 14.5 | 0.00 | 0.00 | 0.00 | 69 | 1011.8 |
| 20260902135514 | 26 | 9 | 8.0 | 12.9 | 0.00 | 0.00 | 0.00 | 71 | 1011.8 |
| 20260902135014 | 25 | 221 | 3.2 | 9.7 | 0.00 | 0.00 | 0.00 | 73 | 1011.9 |
| 20260902134514 | 25 | 187 | 4.8 | 12.9 | 0.00 | 0.00 | 0.00 | 74 | 1011.8 |
| 20260902134013 | 25 | 153 | 4.8 | 12.9 | 0.00 | 0.00 | 0.00 | 74 | 1011.8 |
| 20260902133513 | 25 | 119 | 6.4 | 9.7 | 0.00 | 0.00 | 0.00 | 76 | 1011.9 |
| 20260902133013 | 25 | 158 | 3.2 | 8.0 | 0.00 | 0.00 | 0.00 | 79 | 1012.0 |
| 20260902132513 | 24 | 162 | 3.2 | 11.3 | 0.00 | 0.00 | 0.00 | 81 | 1012.0 |
| 20260902131512 | 23 | 126 | 3.2 | 6.4 | 0.00 | 0.00 | 0.00 | 84 | 1012.2 |
| 20260902131012 | 23 | 196 | 3.2 | 6.4 | 0.00 | 0.00 | 0.00 | 85 | 1012.1 |
| 20260902130511 | 23 | 146 | 3.2 | 4.8 | 0.00 | 0.00 | 0.00 | 85 | 1012.3 |
| 20260902130010 | 22 | 196 | 1.6 | 3.2 | 0.00 | 0.00 | 0.00 | 85 | 1012.2 |
| 20260902125511 | 22 | 129 | 1.6 | 3.2 | 0.00 | 0.00 | 0.00 | 85 | 1012.3 |
| 20260902125012 | 22 | 93 | 0.0 | 3.2 | 0.00 | 0.00 | 0.00 | 85 | 1012.3 |
| 20260902124510 | 22 | 146 | 1.6 | 3.2 | 0.00 | 0.00 | 0.00 | 85 | 1012.3 |
| 20260902124009 | 22 | 178 | 1.6 | 3.2 | 0.00 | 0.00 | 0.00 | 85 | 1012.3 |
| 20260902123009 | 22 | 205 | 0.0 | 3.2 | 0.00 | 0.00 | 0.00 | 85 | 1012.3 |
| 20260902122509 | 22 | 111 | 0.0 | 3.2 | 0.00 | 0.00 | 0.00 | 85 | 1012.4 |
| 20260902122008 | 22 | 291 | 1.6 | 3.2 | 0.00 | 0.00 | 0.00 | 85 | 1012.4 |
| 20260902121509 | 22 | 31 | 1.6 | 3.2 | 0.00 | 0.00 | 0.00 | 85 | 1012.3 |
| 20260902121008 | 22 | 319 | 1.6 | 3.2 | 0.00 | 0.00 | 0.00 | 85 | 1012.4 |
| 20260902120508 | 22 | 232 | 1.6 | 3.2 | 0.00 | 0.00 | 0.00 | 85 | 1012.3 |
| 20260902120009 | 22 | 291 | 1.6 | 4.8 | 0.00 | 0.00 | 0.00 | 85 | 1012.3 |
| 20260902115508 | 22 | 26 | 1.6 | 4.8 | 0.00 | 0.00 | 0.00 | 85 | 1012.1 |
| 20260902115008 | 22 | 178 | 1.6 | 11.3 | 0.00 | 0.00 | 0.00 | 85 | 1012.1 |
| 20260902114509 | 22 | 61 | 6.4 | 11.3 | 0.00 | 0.00 | 0.00 | 85 | 1011.9 |
| 20260902114007 | 22 | 232 | 3.2 | 8.0 | 0.00 | 0.00 | 0.00 | 85 | 1012.2 |
| 20260902113008 | 22 | 26 | 3.2 | 9.7 | 0.00 | 0.00 | 0.00 | 86 | 1012.0 |
| 20260902111508 | 22 | 128 | 3.2 | 8.0 | 0.00 | 0.00 | 0.00 | 86 | 1012.0 |
| 20260902111007 | 22 | 254 | 3.2 | 8.0 | 0.00 | 0.00 | 0.00 | 86 | 1012.1 |
| 20260902110507 | 22 | 265 | 3.2 | 14.5 | 0.00 | 0.00 | 0.00 | 86 | 1012.2 |
| 20260902110008 | 22 | 16 | 9.7 | 14.5 | 0.00 | 0.00 | 0.00 | 87 | 1012.2 |
| 20260902105007 | 22 | 93 | 6.4 | 12.9 | 0.00 | 0.00 | 0.00 | 87 | 1012.3 |
| 20260902104007 | 22 | 0 | 0.0 | 4.8 | 0.00 | 0.00 | 0.00 | 86 | 1012.2 |
| 20260902103507 | 22 | 291 | 0.0 | 3.2 | 0.00 | 0.00 | 0.00 | 86 | 1012.2 |
| 20260902103009 | 22 | 9 | 0.0 | 4.8 | 0.00 | 0.00 | 0.00 | 86 | 1012.2 |
| 20260902102506 | 22 | 265 | 0.0 | 4.8 | 0.00 | 0.00 | 0.00 | 86 | 1012.1 |
| 20260902101506 | 22 | 205 | 1.6 | 4.8 | 0.00 | 0.00 | 0.00 | 85 | 1012.2 |
| 20260902100506 | 22 | 265 | 1.6 | 4.8 | 0.00 | 0.00 | 0.00 | 84 | 1012.4 |
| 20260902100005 | 22 | 93 | 1.6 | 6.4 | 0.00 | 0.00 | 0.00 | 84 | 1012.4 |
| 20260902095507 | 22 | 210 | 1.6 | 6.4 | 0.00 | 0.00 | 0.00 | 84 | 1012.4 |
| 20260902094506 | 22 | 51 | 0.0 | 3.2 | 0.00 | 0.00 | 0.00 | 82 | 1012.4 |
| 20260902094006 | 22 | 9 | 1.6 | 8.0 | 0.00 | 0.00 | 0.00 | 82 | 1012.5 |
| 20260902093506 | 23 | 178 | 3.2 | 8.0 | 0.00 | 0.00 | 0.00 | 81 | 1012.4 |
| 20260902093005 | 23 | 165 | 3.2 | 8.0 | 0.00 | 0.00 | 0.00 | 80 | 1012.5 |
| 20260902091508 | 23 | 111 | 1.6 | 6.4 | 0.00 | 0.00 | 0.00 | 77 | 1012.6 |
| 20260902090506 | 23 | 325 | 1.6 | 3.2 | 0.00 | 0.00 | 0.00 | 76 | 1012.6 |
| 20260902085505 | 24 | 9 | 0.0 | 3.2 | 0.00 | 0.00 | 0.00 | 74 | 1012.5 |
| 20260902085005 | 24 | 119 | 1.6 | 3.2 | 0.00 | 0.00 | 0.00 | 74 | 1012.5 |
| 20260902084506 | 24 | 41 | 0.0 | 3.2 | 0.00 | 0.00 | 0.00 | 74 | 1012.4 |
| 20260902084006 | 24 | 51 | 1.6 | 6.4 | 0.00 | 0.00 | 0.00 | 73 | 1012.6 |
| 20260902083506 | 24 | 165 | 1.6 | 6.4 | 0.00 | 0.00 | 0.00 | 73 | 1012.7 |
| 20260902083005 | 24 | 34 | 1.6 | 11.3 | 0.00 | 0.00 | 0.00 | 73 | 1012.7 |
| 20260902082005 | 24 | 209 | 3.2 | 14.5 | 0.00 | 0.00 | 0.00 | 72 | 1012.8 |
| 20260902081505 | 25 | 178 | 1.6 | 4.8 | 0.00 | 0.00 | 0.00 | 71 | 1012.6 |
| 20260902081005 | 25 | 230 | 3.2 | 8.0 | 0.00 | 0.00 | 0.00 | 71 | 1012.6 |
| 20260902080505 | 25 | 13 | 3.2 | 19.3 | 0.00 | 0.00 | 0.00 | 70 | 1012.7 |
| 20260902080004 | 25 | 43 | 11.3 | 19.3 | 0.00 | 0.00 | 0.00 | 70 | 1012.9 |
| 20260902075504 | 25 | 34 | 4.8 | 12.9 | 0.00 | 0.00 | 0.00 | 70 | 1012.8 |
| 20260902074504 | 25 | 338 | 9.7 | 17.7 | 0.00 | 0.00 | 0.00 | 66 | 1012.9 |
| 20260902074004 | 26 | 319 | 1.6 | 6.4 | 0.00 | 0.00 | 0.00 | 64 | 1012.4 |
| 20260902073504 | 26 | 232 | 1.6 | 8.0 | 0.00 | 0.00 | 0.00 | 63 | 1011.9 |
| 20260902073005 | 26 | 146 | 3.2 | 8.0 | 0.00 | 0.00 | 0.00 | 62 | 1011.9 |
| 20260902072503 | 26 | 178 | 1.6 | 9.7 | 0.00 | 0.00 | 0.00 | 62 | 1011.8 |
| 20260902072004 | 26 | 200 | 4.8 | 11.3 | 0.00 | 0.00 | 0.00 | 61 | 1011.7 |
| 20260902071504 | 26 | 142 | 6.4 | 11.3 | 0.00 | 0.00 | 0.00 | 61 | 1011.8 |
| 20260902071004 | 26 | 140 | 3.2 | 9.7 | 0.00 | 0.00 | 0.00 | 60 | 1011.8 |
| 20260902070503 | 26 | 212 | 4.8 | 12.9 | 0.00 | 0.00 | 0.00 | 60 | 1011.8 |
| 20260902070004 | 26 | 202 | 4.8 | 12.9 | 0.00 | 0.00 | 0.00 | 60 | 1011.8 |
| 20260902065504 | 26 | 171 | 6.4 | 12.9 | 0.00 | 0.00 | 0.00 | 60 | 1011.8 |
| 20260902065003 | 26 | 219 | 6.4 | 12.9 | 0.00 | 0.00 | 0.00 | 60 | 1011.8 |
| 20260902064503 | 26 | 207 | 6.4 | 12.9 | 0.00 | 0.00 | 0.00 | 60 | 1011.8 |
| 20260902064002 | 27 | 201 | 6.4 | 12.9 | 0.00 | 0.00 | 0.00 | 59 | 1011.8 |
| 20260902063503 | 27 | 232 | 3.2 | 12.9 | 0.00 | 0.00 | 0.00 | 59 | 1011.8 |
| 20260902062502 | 27 | 234 | 3.2 | 12.9 | 0.00 | 0.00 | 0.00 | 59 | 1011.7 |
| 20260902060502 | 27 | 190 | 6.4 | 14.5 | 0.00 | 0.00 | 0.00 | 59 | 1011.4 |
| 20260902060002 | 27 | 137 | 6.4 | 14.5 | 0.00 | 0.00 | 0.00 | 59 | 1011.2 |
| 20260902055504 | 27 | 137 | 6.4 | 14.5 | 0.00 | 0.00 | 0.00 | 59 | 1011.2 |
| 20260902055002 | 27 | 150 | 4.8 | 16.1 | 0.00 | 0.00 | 0.00 | 60 | 1011.2 |
| 20260902053957 | 27 | 102 | 6.4 | 11.3 | 0.00 | 0.00 | 0.00 | 60 | 1011.2 |
| 20260902053457 | 27 | 157 | 6.4 | 11.3 | 0.00 | 0.00 | 0.00 | 60 | 1011.4 |
| 20260902051957 | 27 | 162 | 3.2 | 11.3 | 0.00 | 0.00 | 0.00 | 62 | 1011.5 |
| 20260902051456 | 27 | 163 | 3.2 | 9.7 | 0.00 | 0.00 | 0.00 | 63 | 1011.6 |
| 20260902050456 | 27 | 193 | 3.2 | 6.4 | 0.00 | 0.00 | 0.00 | 63 | 1011.6 |
| 20260902045956 | 27 | 142 | 3.2 | 6.4 | 0.00 | 0.00 | 0.00 | 64 | 1011.6 |
| 20260902045455 | 27 | 123 | 1.6 | 6.4 | 0.00 | 0.00 | 0.00 | 64 | 1011.6 |
| 20260902043955 | 27 | 144 | 3.2 | 8.0 | 0.00 | 0.00 | 0.00 | 63 | 1011.5 |
| 20260902043455 | 27 | 119 | 3.2 | 8.0 | 0.00 | 0.00 | 0.00 | 64 | 1011.6 |
| 20260902042955 | 27 | 126 | 4.8 | 8.0 | 0.00 | 0.00 | 0.00 | 63 | 1011.7 |
| 20260902042455 | 27 | 140 | 3.2 | 8.0 | 0.00 | 0.00 | 0.00 | 63 | 1011.6 |
| 20260902041955 | 28 | 168 | 3.2 | 8.0 | 0.00 | 0.00 | 0.00 | 63 | 1011.5 |
| 20260902041454 | 28 | 178 | 4.8 | 8.0 | 0.00 | 0.00 | 0.00 | 63 | 1011.5 |
| 20260902040454 | 28 | 115 | 4.8 | 12.9 | 0.00 | 0.00 | 0.00 | 63 | 1011.6 |
| 20260902035954 | 28 | 137 | 6.4 | 12.9 | 0.00 | 0.00 | 0.00 | 63 | 1011.5 |
| 20260902035453 | 28 | 153 | 4.8 | 9.7 | 0.00 | 0.00 | 0.00 | 64 | 1011.6 |
| 20260902034955 | 28 | 150 | 3.2 | 9.7 | 0.00 | 0.00 | 0.00 | 65 | 1011.6 |
| 20260902034453 | 28 | 169 | 3.2 | 8.0 | 0.00 | 0.00 | 0.00 | 65 | 1011.7 |
| 20260902033453 | 27 | 165 | 3.2 | 8.0 | 0.00 | 0.00 | 0.00 | 67 | 1011.6 |
| 20260902032953 | 27 | 170 | 3.2 | 8.0 | 0.00 | 0.00 | 0.00 | 67 | 1011.6 |
| 20260902032453 | 28 | 121 | 3.2 | 6.4 | 0.00 | 0.00 | 0.00 | 68 | 1011.6 |
| 20260902031950 | 28 | 153 | 3.2 | 6.4 | 0.00 | 0.00 | 0.00 | 67 | 1011.6 |
| 20260902031450 | 28 | 115 | 3.2 | 4.8 | 0.00 | 0.00 | 0.00 | 66 | 1011.5 |
| 20260902030950 | 28 | 193 | 1.6 | 6.4 | 0.00 | 0.00 | 0.00 | 65 | 1011.5 |
| 20260902025945 | 28 | 149 | 1.6 | 6.4 | 0.00 | 0.00 | 0.00 | 64 | 1011.4 |
| 20260902025444 | 28 | 137 | 4.8 | 6.4 | 0.00 | 0.00 | 0.00 | 64 | 1011.4 |
| 20260902024945 | 28 | 119 | 3.2 | 6.4 | 0.00 | 0.00 | 0.00 | 64 | 1011.5 |
| 20260902023944 | 29 | 153 | 1.6 | 4.8 | 0.00 | 0.00 | 0.00 | 63 | 1011.3 |
| 20260902023443 | 29 | 93 | 1.6 | 4.8 | 0.00 | 0.00 | 0.00 | 63 | 1011.2 |
| 20260902022938 | 29 | 158 | 3.2 | 6.4 | 0.00 | 0.00 | 0.00 | 63 | 1011.2 |
| 20260902022437 | 29 | 113 | 3.2 | 6.4 | 0.00 | 0.00 | 0.00 | 63 | 1011.1 |
| 20260902021938 | 29 | 146 | 3.2 | 8.0 | 0.00 | 0.00 | 0.00 | 63 | 1011.1 |
| 20260902021438 | 29 | 137 | 4.8 | 8.0 | 0.00 | 0.00 | 0.00 | 63 | 1011.0 |
| 20260902020437 | 30 | 119 | 3.2 | 6.4 | 0.00 | 0.00 | 0.00 | 62 | 1010.9 |
| 20260902015937 | 30 | 119 | 3.2 | 4.8 | 0.00 | 0.00 | 0.00 | 61 | 1010.9 |
| 20260902015439 | 30 | 178 | 3.2 | 6.4 | 0.00 | 0.00 | 0.00 | 61 | 1010.8 |
| 20260902014436 | 30 | 168 | 3.2 | 6.4 | 0.00 | 0.00 | 0.00 | 60 | 1010.5 |
| 20260902013936 | 30 | 123 | 3.2 | 4.8 | 0.00 | 0.00 | 0.00 | 59 | 1010.5 |
| 20260902013435 | 30 | 142 | 3.2 | 4.8 | 0.00 | 0.00 | 0.00 | 58 | 1010.6 |
| 20260902012935 | 30 | 123 | 3.2 | 4.8 | 0.00 | 0.00 | 0.00 | 58 | 1010.5 |
| 20260902012436 | 31 | 119 | 3.2 | 4.8 | 0.00 | 0.00 | 0.00 | 57 | 1010.4 |
| 20260902011935 | 31 | 119 | 1.6 | 6.4 | 0.00 | 0.00 | 0.00 | 56 | 1010.4 |
| 20260902011435 | 31 | 126 | 3.2 | 6.4 | 0.00 | 0.00 | 0.00 | 56 | 1010.3 |
| 20260902010935 | 31 | 111 | 3.2 | 8.0 | 0.00 | 0.00 | 0.00 | 54 | 1010.4 |
| 20260902010434 | 32 | 123 | 3.2 | 9.7 | 0.00 | 0.00 | 0.00 | 53 | 1010.3 |
| 20260902005934 | 32 | 126 | 4.8 | 9.7 | 0.00 | 0.00 | 0.00 | 52 | 1010.3 |
| 20260902005435 | 32 | 178 | 4.8 | 11.3 | 0.00 | 0.00 | 0.00 | 52 | 1010.2 |
| 20260902004934 | 32 | 173 | 6.4 | 12.9 | 0.00 | 0.00 | 0.00 | 52 | 1010.2 |
| 20260902003934 | 32 | 183 | 6.4 | 12.9 | 0.00 | 0.00 | 0.00 | 51 | 1010.2 |
| 20260902003433 | 32 | 168 | 6.4 | 11.3 | 0.00 | 0.00 | 0.00 | 51 | 1010.0 |
| 20260902002433 | 33 | 198 | 4.8 | 9.7 | 0.00 | 0.00 | 0.00 | 50 | 1009.9 |
| 20260902001933 | 33 | 162 | 3.2 | 9.7 | 0.00 | 0.00 | 0.00 | 50 | 1010.2 |
| 20260902001433 | 33 | 178 | 4.8 | 11.3 | 0.00 | 0.00 | 0.00 | 50 | 1010.0 |
| 20260902000932 | 33 | 214 | 3.2 | 11.3 | 0.00 | 0.00 | 0.00 | 50 | 1010.2 |
| 20260902000432 | 33 | 200 | 6.4 | 11.3 | 0.00 | 0.00 | 0.00 | 49 | 1010.2 |
| 20260901235932 | 33 | 221 | 6.4 | 16.1 | 0.00 | 0.00 | 0.00 | 49 | 1010.3 |
| 20260901235432 | 34 | 196 | 8.0 | 16.1 | 0.00 | 0.00 | 0.00 | 49 | 1010.4 |
| 20260901234431 | 34 | 200 | 6.4 | 19.3 | 0.00 | 0.00 | 0.00 | 49 | 1010.4 |
| 20260901233431 | 34 | 156 | 8.0 | 16.1 | 0.00 | 0.00 | 0.00 | 49 | 1010.5 |
| 20260901232930 | 34 | 163 | 9.7 | 16.1 | 0.00 | 0.00 | 0.00 | 49 | 1010.4 |
| 20260901232430 | 34 | 195 | 8.0 | 14.5 | 0.00 | 0.00 | 0.00 | 50 | 1010.6 |
| 20260901231931 | 34 | 208 | 4.8 | 16.1 | 0.00 | 0.00 | 0.00 | 51 | 1010.5 |
| 20260901225930 | 34 | 232 | 11.3 | 22.5 | 0.00 | 0.00 | 0.00 | 50 | 1010.7 |
| 20260901224927 | 35 | 234 | 11.3 | 19.3 | 0.00 | 0.00 | 0.00 | 50 | 1010.8 |
| 20260901224428 | 35 | 187 | 6.4 | 17.7 | 0.00 | 0.00 | 0.00 | 51 | 1010.7 |
| 20260901223927 | 35 | 203 | 6.4 | 17.7 | 0.00 | 0.00 | 0.00 | 50 | 1010.8 |
| 20260901223428 | 35 | 196 | 9.7 | 22.5 | 0.00 | 0.00 | 0.00 | 49 | 1010.8 |
| 20260901222427 | 35 | 257 | 9.7 | 25.7 | 0.00 | 0.00 | 0.00 | 50 | 1010.8 |
| 20260901221427 | 35 | 196 | 11.3 | 22.5 | 0.00 | 0.00 | 0.00 | 49 | 1010.9 |
| 20260901220926 | 35 | 215 | 9.7 | 17.7 | 0.00 | 0.00 | 0.00 | 51 | 1011.0 |
| 20260901220424 | 34 | 193 | 8.0 | 24.1 | 0.00 | 0.00 | 0.00 | 51 | 1011.0 |
| 20260901215924 | 34 | 203 | 11.3 | 25.7 | 0.00 | 0.00 | 0.00 | 49 | 1011.0 |
| 20260901215425 | 34 | 170 | 9.7 | 24.1 | 0.00 | 0.00 | 0.00 | 51 | 1011.0 |
| 20260901214924 | 34 | 203 | 11.3 | 24.1 | 0.00 | 0.00 | 0.00 | 51 | 1010.9 |
| 20260901214423 | 34 | 188 | 12.9 | 22.5 | 0.00 | 0.00 | 0.00 | 51 | 1011.1 |
| 20260901213924 | 34 | 227 | 9.7 | 20.9 | 0.00 | 0.00 | 0.00 | 51 | 1011.1 |
| 20260901213424 | 34 | 171 | 9.7 | 17.7 | 0.00 | 0.00 | 0.00 | 51 | 1011.0 |
| 20260901212423 | 34 | 203 | 8.0 | 22.5 | 0.00 | 0.00 | 0.00 | 51 | 1011.2 |
| 20260901211923 | 34 | 210 | 12.9 | 22.5 | 0.00 | 0.00 | 0.00 | 51 | 1011.3 |
| 20260901211424 | 34 | 262 | 11.3 | 20.9 | 0.00 | 0.00 | 0.00 | 52 | 1011.3 |
| 20260901210423 | 34 | 194 | 6.4 | 17.7 | 0.00 | 0.00 | 0.00 | 53 | 1011.2 |
| 20260901205923 | 34 | 189 | 8.0 | 17.7 | 0.00 | 0.00 | 0.00 | 54 | 1011.3 |
| 20260901205425 | 34 | 201 | 9.7 | 27.4 | 0.00 | 0.00 | 0.00 | 52 | 1011.4 |
| 20260901204923 | 34 | 200 | 16.1 | 27.4 | 0.00 | 0.00 | 0.00 | 51 | 1011.5 |
| 20260901204423 | 34 | 196 | 11.3 | 19.3 | 0.00 | 0.00 | 0.00 | 51 | 1011.4 |
| 20260901203422 | 33 | 211 | 8.0 | 20.9 | 0.00 | 0.00 | 0.00 | 52 | 1011.5 |
| 20260901202922 | 33 | 162 | 9.7 | 22.5 | 0.00 | 0.00 | 0.00 | 52 | 1011.6 |
| 20260901202422 | 33 | 214 | 9.7 | 22.5 | 0.00 | 0.00 | 0.00 | 52 | 1011.6 |
| 20260901201922 | 34 | 200 | 8.0 | 19.3 | 0.00 | 0.00 | 0.00 | 53 | 1011.7 |
| 20260901200921 | 33 | 210 | 4.8 | 19.3 | 0.00 | 0.00 | 0.00 | 55 | 1011.7 |
| 20260901200422 | 33 | 198 | 8.0 | 22.5 | 0.00 | 0.00 | 0.00 | 53 | 1011.7 |
| 20260901195921 | 33 | 187 | 8.0 | 22.5 | 0.00 | 0.00 | 0.00 | 51 | 1011.8 |
| 20260901195422 | 33 | 226 | 11.3 | 19.3 | 0.00 | 0.00 | 0.00 | 51 | 1011.9 |